This is the latest recevied weather packets stored in our database for station/object EW3591. If no packets are shown the sender has not sent any weather packets the latest 1 day(s).
| Time | Temp. | Humidity | Pressure | Rain* | Wind** | Luminosity | Snow |
|---|---|---|---|---|---|---|---|
| 1778047199 | 7.78° C | 97% | 1007.9 hPa | 1.78 mm | - | - | - |
| 1778047079 | 7.78° C | 97% | 1007.8 hPa | 1.78 mm | - | - | - |
| 1778046838 | 7.78° C | 97% | 1007.7 hPa | 2.03 mm | - | - | - |
| 1778046718 | 7.78° C | 97% | 1007.7 hPa | 2.03 mm | - | - | - |
| 1778046357 | 8.33° C | 97% | 1008 hPa | 1.78 mm | - | - | - |
| 1778045996 | 8.33° C | 98% | 1008.1 hPa | 1.78 mm | - | - | - |
| 1778045876 | 8.33° C | 98% | 1008.2 hPa | 1.78 mm | - | - | - |
| 1778045635 | 8.89° C | 98% | 1008.3 hPa | 1.52 mm | - | - | - |
| 1778045515 | 8.89° C | 98% | 1008.3 hPa | 1.52 mm | - | - | - |
| 1778045274 | 8.89° C | 98% | 1008.3 hPa | 1.78 mm | - | - | - |
| 1778045154 | 8.89° C | 98% | 1008.3 hPa | 1.52 mm | - | - | - |
| 1778044793 | 8.89° C | 98% | 1008.4 hPa | 1.27 mm | - | - | - |
| 1778044673 | 8.89° C | 98% | 1008.5 hPa | 1.27 mm | - | - | - |
| 1778044432 | 8.89° C | 98% | 1008.4 hPa | 1.27 mm | - | - | - |
| 1778044312 | 8.89° C | 98% | 1008.5 hPa | 1.02 mm | - | - | - |
| 1778043951 | 8.89° C | 98% | 1008.5 hPa | 1.02 mm | - | - | - |
| 1778043710 | 8.89° C | 98% | 1008.5 hPa | 0.76 mm | - | - | - |
| 1778043590 | 8.89° C | 98% | 1008.6 hPa | 0.76 mm | - | - | - |
| 1778043470 | 8.89° C | 98% | 1008.6 hPa | 0.76 mm | - | - | - |
| 1778043229 | 8.89° C | 98% | 1008.6 hPa | 0.51 mm | - | - | - |
| 1778043109 | 8.89° C | 98% | 1008.6 hPa | 0.51 mm | - | - | - |
| 1778042868 | 8.89° C | 98% | 1008.6 hPa | 0.51 mm | - | - | - |
| 1778042748 | 8.89° C | 98% | 1008.6 hPa | 0.25 mm | - | - | - |
| 1778042507 | 8.89° C | 98% | 1008.6 hPa | 0.25 mm | - | - | - |
| 1778042387 | 8.89° C | 98% | 1008.5 hPa | 0.25 mm | - | - | - |
* Rain latest hour (hover to see other rain measurements)
** Current wind speed in m/s (hover to see current wind gust speed)